ONEWEB-0385, 49311

Orbit data source: Space-Track

ONEWEB-0385, 49311 is a payload satellite owned by One Web (NAA) (UK) in LEO that was launched on Thu, 14 Oct 2021 UTC via a SOYUZ-2-1B launch vehicle from the Vostochny Cosmodrome (VOSTO). Payload-class satellites include a variety of spacecraft equipped with specific instruments for various scientific and technological missions. These include communications satellites like Starlink; space stations such as the ISS; scientific satellites like the Hubble; Earth observation satellites from companies like Planet Labs, Umbra, and HawkEye 360; GPS; miniature CubeSats for education and research; and military/defense satellites.

Loading next visibility...
Identifier
49311, 2021-090AJ
Orbit
LEO
Country
Flag of UKUK
Related business
Manufacturer
One Web
Mission
Operational Commercial Communications
Bus & Motor
ARROW, Unknown motor
Mass
148 kg wet, ~140 kg dry
Launch date (UTC)
2021-10-14 (5 years ago)
Launch vehicle
SOYUZ-2-1B
Launch site
Vostochny Cosmodrome (VOSTO)
Object type
Payload
Rocket body
Debris
Shape & HBR
Trap Box + 2 Pan, 6.7 m
Radar Cross Section
3.464 m², Large (>1 m²)

Expand to show TLE details & history
Last TLE update: 2 days ago

TLE from 2 days ago
0 ONEWEB-0385
1 49311U 21090AJ  26171.32053660  .00000028  00000-0  37078-4 0  9991
2 49311  87.9196 273.8155 0001976  94.4536 265.6823 13.20773083230219
Epoch: 2026-06-20T07:41Z
TLE epoch observation values (Epoch: 2026-06-20T07:41:34.362Z)
Latitude
-0.00002°
Longitude
-110.11452°
Altitude
1,184.784 km
Speed
7.261 km/s
True Right ascension
18h 15m 15s
True Declination
0° 00' 00"
Sunlit
Object was in full shadow at epoch
Visualization orbit readout
Latitude
Unknown
Longitude
Unknown
Altitude
Unknown
Speed
Unknown
Apparent Right ascension
Unknown
Apparent Declination
Unknown
Sunlit
N/A
Visualization observer readout
Local Sidereal Time
21:47:23
Azimuth
Unknown
Elevation
Unknown
Doppler factor
Unknown
Orbital elements
Apogee altitude
1,180.366 km
Perigee altitude
1,177.379 km
Semi-major axis
7,557.01 km
Eccentricity
0.0002
Inclination
87.9196°
RAAN
273.8155°
Arg. of periapsis
94.4536°
True anomaly
265.65972°
Mean anomaly
265.6823°
Eccentric anomaly
265.67101°
Mean motion
3.30383 °/min
Orbital period
108.96 mins
BSTAR
0.000037078
Loading maneuver chart data...
Computing Atmospheric mass density...
Loading historical data...
Loading historical data...
Loading historical data...
Loading historical data...
Loading historical data...
Loading historical data...
Loading historical data...

Documentation

Showing up to 5 results
|